Location: Auckland
(36.8670°S, 174.7670°E)
Time: 20:11:05
(UTC+12:00)

A-11 Canister half - Pass Details

Date: 27 July 2019
Orbit: 1526 x 1683 km, 47.3° (Epoch: 18 August)

Event Time Altitude Azimuth Distance (km) Brightness Sun altitude
Rises 15:37:42 0° 245° (WSW) 4,833 11.9 18.2°
Reaches altitude 10° 15:41:27 10° 256° (WSW) 3,867 11.7 17.6°
Maximum altitude 15:49:04 26° 307° (NW) 2,838 12.8 16.5°
Drops below altitude 10° 15:56:49 10° 358° (N) 3,921 11.8 15.3°
Sets 16:00:42 0° 10° (N) 4,914 12.1 14.7°
